METEOR 2-11 DEB

Satellite information

Favourite Embed

Satellite Type and Status

DEBRISIN ORBIT

Key statistics

Satellite METEOR 2-11 DEB at a glance.

Uptime

14917

Days in orbit

Revolutions

≈ 13.9

Per day

Orbit

LEO

Low Earth Orbit

Inclination

82.5

Latest

Satellite identification and parameters

Extended collection of information and parameters for METEOR 2-11 DEB.

Object identification

Identified? True

Debris? True

Object name: METEOR 2-11 DEB

International designator: 1984-072R

Object number (NORAD): 42455

Object ID (CCSDS): 42455

Country: COMMONWEALTH OF INDEPENDENT STATES (CIS)

Current information (Y/N): Y

RCS size: SMALL

Orbital parameters

Period: 103.238 minutes

Inclination: 82.5259 deg

SMA: 7289.853 km

Apoapsis: 917.432 km

Periapsis: 906.004 km

RAAN: 346.3036 deg

Eccentricy: 0.0007838

Argument of periapsis: 56.6086 deg

Mean anomaly: 303.5829 deg

Mean motion: 13.94840603 rev/day

Mean motion (dot): 0.00002445 rev/day2

B* drag term: 0.0018114 1/REarth

Two-line elements (TLE)

Creation date: May 8, 2025, 3:01 a.m.

Reference frame: TEME

Reference center: EARTH

Epoch: May 7, 2025, 8:33 p.m. UTC

TLE line 0: 0 METEOR 2-11 DEB

TLE line 1: 1 42455U 84072R 25127.85628923 .00002445 00000-0 18114-2 0 9993

TLE line 2: 2 42455 82.5259 346.3036 0007838 56.6086 303.5829 13.94840603503427

Live tracking on map

Real-time ground track for satellite METEOR 2-11 DEB.

In-orbit conjunctions

A list of the most updated potential collisions computed for object METEOR 2-11 DEB.

Target Orbit TCA Probability of collision Miss distance Type
GGSE 4 LEO 2025-05-05 18:54:35 0.0001551115 980.0 (m) PAYLOAD

Associated space launch

Second generation soviet meteorological satellite

METEOR 2-11 DEB was lifted into orbit during the mission ‘Tsiklon-3 | Meteor-2 11’, on board a Tsiklon-3 space rocket.

The launch took place on July 5, 1984, 3:35 a.m. from 32/2.

For more information about the launch, click the button.

Launch to space Tsiklon-3 | Meteor-2 11
Tsiklon-3 | Meteor-2 11

Agency: N/A

Status: Launch Successful

Launch date: July 5, 1984, 3:35 a.m. UTC

Rocket: Tsiklon-3

Launch pad: 32/2

Location: Plesetsk Cosmodrome, Russian Federation

...

Latest news about this satellite

There are no fresh news available about this satellite. Check back as we update our databases every day.


Newsletter sign-up

Weekly statistics, charts and insights to help you stay on top of the space industry.